TimeMDT,TemperatureF,Dew PointF,Humidity,Sea Level PressureIn,VisibilityMPH,Wind Direction,Wind SpeedMPH,Gust SpeedMPH,PrecipitationIn,Events,Conditions,WindDirDegrees,DateUTC
12:11 AM,33.8,28.4,81,30.32,2.5,ESE,8.1,-,0.00,Snow,Light Snow,120,2012-10-05 06:11:00
12:26 AM,32.0,28.4,87,30.32,1.8,SE,5.8,-,0.00,Snow,Light Snow,130,2012-10-05 06:26:00
12:44 AM,30.2,28.4,93,30.31,2.0,SSE,3.5,-,0.01,Snow,Light Snow,150,2012-10-05 06:44:00
12:53 AM,30.9,30.0,96,30.38,2.0,SSE,3.5,-,0.01,Snow,Light Snow,160,2012-10-05 06:53:00
1:43 AM,30.2,30.2,100,30.31,4.0,Calm,Calm,-,0.01,Snow,Light Snow,0,2012-10-05 07:43:00
1:53 AM,30.9,30.0,96,30.37,2.5,South,3.5,-,0.01,Snow,Light Snow,180,2012-10-05 07:53:00
2:09 AM,30.2,30.2,100,30.32,3.0,Calm,Calm,-,0.00,Snow,Light Snow,0,2012-10-05 08:09:00
2:53 AM,30.9,28.9,92,30.36,5.0,Calm,Calm,-,0.00,Snow,Light Snow,0,2012-10-05 08:53:00
3:53 AM,30.9,30.0,96,30.35,10.0,Calm,Calm,-,0.00,,Overcast,0,2012-10-05 09:53:00
4:53 AM,30.9,28.9,92,30.35,10.0,Calm,Calm,-,N/A,,Overcast,0,2012-10-05 10:53:00
5:53 AM,30.9,30.0,96,30.36,9.0,Calm,Calm,-,0.00,Snow,Light Snow,0,2012-10-05 11:53:00
6:53 AM,30.9,28.9,92,30.37,10.0,Calm,Calm,-,0.00,,Overcast,0,2012-10-05 12:53:00
7:53 AM,30.9,30.0,96,30.39,10.0,North,3.5,-,N/A,,Overcast,350,2012-10-05 13:53:00
8:24 AM,32.0,30.2,93,30.32,10.0,North,3.5,-,N/A,,Overcast,10,2012-10-05 14:24:00
8:51 AM,32.0,30.2,93,30.32,4.0,North,3.5,-,0.00,Snow,Light Snow,360,2012-10-05 14:51:00
8:53 AM,32.0,30.0,92,30.40,3.0,North,3.5,-,0.00,Snow,Light Snow,360,2012-10-05 14:53:00
9:03 AM,32.0,30.2,93,30.33,2.5,Calm,Calm,-,0.00,Snow,Light Snow,0,2012-10-05 15:03:00
9:17 AM,32.0,30.2,93,30.33,3.0,NNW,3.5,-,0.00,Snow,Light Snow,340,2012-10-05 15:17:00
9:30 AM,32.0,30.2,93,30.33,3.0,North,3.5,-,0.00,Snow,Light Snow,360,2012-10-05 15:30:00
9:37 AM,33.8,30.2,87,30.33,4.0,Calm,Calm,-,0.00,Snow,Light Snow,0,2012-10-05 15:37:00
9:53 AM,33.1,30.0,89,30.41,6.0,Calm,Calm,-,0.00,,Overcast,0,2012-10-05 15:53:00
10:18 AM,33.8,30.2,87,30.33,9.0,Calm,Calm,-,N/A,,Overcast,0,2012-10-05 16:18:00
10:53 AM,35.1,28.9,78,30.40,10.0,Calm,Calm,-,N/A,,Overcast,0,2012-10-05 16:53:00
11:46 AM,35.6,28.4,75,30.33,10.0,Calm,Calm,-,N/A,,Overcast,0,2012-10-05 17:46:00
11:53 AM,36.0,28.0,73,30.40,10.0,Calm,Calm,-,N/A,,Overcast,0,2012-10-05 17:53:00
12:53 PM,37.0,28.0,70,30.39,10.0,Calm,Calm,-,N/A,,Overcast,0,2012-10-05 18:53:00
1:53 PM,37.9,27.0,65,30.36,10.0,Calm,Calm,-,N/A,,Overcast,0,2012-10-05 19:53:00
2:11 PM,37.4,28.4,70,30.29,10.0,South,4.6,-,N/A,,Overcast,170,2012-10-05 20:11:00
2:53 PM,37.9,27.0,65,30.36,8.0,Calm,Calm,-,0.00,Snow,Light Snow,0,2012-10-05 20:53:00
3:02 PM,35.6,30.2,81,30.29,3.0,North,16.1,-,0.00,Snow,Light Snow,360,2012-10-05 21:02:00
3:05 PM,33.8,32.0,93,30.29,1.8,North,15.0,-,0.00,Snow,Light Snow,350,2012-10-05 21:05:00
3:10 PM,33.8,32.0,93,30.29,1.2,NNW,12.7,-,0.00,Snow,Light Snow,340,2012-10-05 21:10:00
3:39 PM,33.8,32.0,93,30.30,0.5,NNW,6.9,-,0.02,Fog-Snow,Snow,330,2012-10-05 21:39:00
3:48 PM,32.0,32.0,100,30.30,0.5,NNW,5.8,-,0.03,Fog-Snow,Snow,330,2012-10-05 21:48:00
3:53 PM,32.0,32.0,100,30.38,0.8,NNW,5.8,-,0.03,Snow,Light Snow,330,2012-10-05 21:53:00
4:04 PM,33.8,32.0,93,30.29,1.0,Calm,Calm,-,0.01,Snow,Light Snow,0,2012-10-05 22:04:00
4:15 PM,33.8,32.0,93,30.29,1.8,WNW,4.6,-,0.01,Snow,Light Snow,300,2012-10-05 22:15:00
4:22 PM,33.8,30.2,87,30.30,2.5,WNW,3.5,-,0.01,Snow,Light Snow,290,2012-10-05 22:22:00
4:32 PM,33.8,32.0,93,30.30,4.0,West,3.5,-,0.01,Snow,Light Snow,280,2012-10-05 22:32:00
4:34 PM,33.8,33.8,100,30.30,4.0,West,5.8,-,0.01,Snow,Light Snow,280,2012-10-05 22:34:00
4:53 PM,34.0,32.0,92,30.38,9.0,West,8.1,-,0.01,,Overcast,270,2012-10-05 22:53:00
5:34 PM,33.8,32.0,93,30.31,2.0,NNE,12.7,-,0.00,Snow,Light Snow,20,2012-10-05 23:34:00
5:36 PM,32.0,30.2,93,30.31,1.2,North,13.8,-,0.00,Snow,Light Snow,10,2012-10-05 23:36:00
5:40 PM,32.0,30.2,93,30.31,0.8,NNE,10.4,-,0.00,Snow,Light Snow,20,2012-10-05 23:40:00
5:45 PM,32.0,32.0,100,30.32,0.2,NNE,12.7,-,0.01,Fog-Snow,Snow,20,2012-10-05 23:45:00
5:53 PM,30.9,30.9,100,30.41,0.2,NNE,9.2,-,0.03,Fog-Snow,Heavy Snow,20,2012-10-05 23:53:00
6:12 PM,30.2,30.2,100,30.32,1.0,NNE,4.6,-,0.02,Snow,Light Snow,30,2012-10-06 00:12:00
6:15 PM,30.2,30.2,100,30.32,1.0,NNE,5.8,-,0.03,Snow,Light Snow,30,2012-10-06 00:15:00
6:26 PM,30.2,30.2,100,30.31,3.0,NNE,5.8,-,0.03,Snow,Light Snow,30,2012-10-06 00:26:00
6:33 PM,30.2,30.2,100,30.32,7.0,NE,4.6,-,0.03,Snow,Light Snow,40,2012-10-06 00:33:00
6:53 PM,30.9,30.0,96,30.40,10.0,NE,3.5,-,0.03,,Overcast,50,2012-10-06 00:53:00
7:20 PM,30.2,30.2,100,30.31,10.0,East,3.5,-,N/A,,Overcast,80,2012-10-06 01:20:00
7:53 PM,28.9,28.9,100,30.42,10.0,Calm,Calm,-,N/A,,Overcast,0,2012-10-06 01:53:00
8:01 PM,30.2,28.4,93,30.32,10.0,Calm,Calm,-,N/A,,Overcast,0,2012-10-06 02:01:00
8:26 PM,30.2,30.2,100,30.33,10.0,North,3.5,-,N/A,,Overcast,350,2012-10-06 02:26:00
8:38 PM,30.2,30.2,100,30.34,3.0,NNE,8.1,-,0.00,Snow,Light Snow,20,2012-10-06 02:38:00
8:45 PM,30.2,30.2,100,30.34,2.0,North,6.9,-,0.00,Snow,Light Snow,10,2012-10-06 02:45:00
8:53 PM,30.9,30.9,100,30.42,2.0,North,8.1,-,0.00,Snow,Light Snow,10,2012-10-06 02:53:00
9:04 PM,30.2,30.2,100,30.34,4.0,North,6.9,-,0.00,Snow,Light Snow,360,2012-10-06 03:04:00
9:53 PM,30.9,30.0,96,30.42,7.0,North,9.2,-,0.00,,Overcast,10,2012-10-06 03:53:00
10:07 PM,30.2,30.2,100,30.34,5.0,North,8.1,-,N/A,,Overcast,10,2012-10-06 04:07:00
10:22 PM,30.2,30.2,100,30.34,3.0,North,6.9,-,0.00,Snow,Light Snow,360,2012-10-06 04:22:00
10:53 PM,30.9,30.0,96,30.42,2.5,North,8.1,-,0.00,Snow,Light Snow,360,2012-10-06 04:53:00
11:00 PM,30.2,30.2,100,30.34,4.0,North,9.2,-,0.00,Snow,Light Snow,360,2012-10-06 05:00:00
11:25 PM,30.2,30.2,100,30.34,3.0,North,8.1,-,0.01,Snow,Light Snow,350,2012-10-06 05:25:00
11:42 PM,30.2,30.2,100,30.35,3.0,North,9.2,-,0.01,,Overcast,360,2012-10-06 05:42:00
11:53 PM,30.0,30.0,100,30.42,4.0,North,8.1,-,0.01,,Overcast,360,2012-10-06 05:53:00